星链-3589 (STARLINK-3589 )

导读

STARLINK-3589是美国太空探索技术公司(SpaceX)星链(Starlink)星座中的一颗卫星,于2022年3月9日发射升空,属于星链互联网卫星星座组网卫星,旨在为全球提供高速低延迟互联网接入服务,推进星链计划近地轨道卫星组网部署,助力全球网络覆盖建设。

Basic Information
目录编号:
51997
目录名称:
STARLINK-3589
国际标识:
2022-025AT
轨道中心:
EARTH
卫星名称:
星链-3589
卫星全名:
星链-3589 (STARLINK-3589 )
卫星状态:
在轨 (已飞行1640 天)
发射日期:
2022-03-09 UTC
国别 :
美国 (US)
星等 :
--
Orbit Information
数据来源 国际轨道数据
星历时间: 2026-09-04T10:18:59+0800
7小时前
查看轨道信息
半长轴: 6840.879km
偏心率: 0.0001102
轨道倾角: 53.159°
近地点辐角 77.613°
升交点赤经 286.153°
平近点角 282.500°
近地点: 461.988km
远地点: 463.496km
周期: 93.849分钟
每日圈数: 15.34387
Detailed Information
固有亮度:
5
最大亮度:
2.5
卫星平台:
Starlink v1.5
覆盖范围:
全球
运营商:
太空探索技术公司
运营商所在国:
美国
制造商(研发单位):
太空探索技术公司
制造商所在国:
美国
使用方式:
暂无
Satellite Introduction
星链(Starlink)计划是由太空探索技术公司(SpaceX)提出的一个巨型低轨卫星互联网星座项目,计划在2019年至2024年间在太空搭建由约1.2万颗卫星组成的“星链”网络,其中1584颗将部署在地球上空550千米处的近地轨道,并从2020年开始工作。该卫星仍在工作。
2D Orbit Map
3D Orbit Map
Orbit Altitude Analysis Chart
Orbit Inclination Analysis Chart
Orbit Comprehensive Analysis Chart
View Comprehensive Chart
Conjunction Data List
Event ID Objects TCA Miss Dist (km) Collision Risk Probability Collision Risk Index (CRI) Action
CDM_260906-042505-199706-475721
2026-09-06T
04:25:35+0000
0.803 km
远距离
4.850822E-5 中风险 0.69
CDM_260906-025105-199706-475721
2026-09-06T
02:51:47+0000
1.599 km
极远距离
4.729417E-6 低风险 0.48
CDM_260905-203805-199705-371922
2026-09-05T
20:38:10+0000
2.537 km
极远距离
1.49243E-6 低风险 0.38
CDM_260906-055905-199706-475721
2026-09-06T
05:59:23+0000
2.650 km
极远距离
1.403803E-6 低风险 0.38
CDM_260905-161405-199705-285821
2026-09-05T
16:14:09+0000
2.422 km
极远距离
4.438655E-7 极低风险 0.28